Time,TemperatureF,DewpointF,PressureIn,WindDirection,WindDirectionDegrees,WindSpeedMPH,WindSpeedGustMPH,Humidity,HourlyPrecipIn,Conditions,Clouds,dailyrainin,SoftwareType,DateUTC
2013-01-31 00:06:00,59.7,55.0,29.48,WNW,290,7.0,17.0,85,0.17,,,0.00,weatherlink.com 1.10,2013-01-31 05:06:00,
2013-01-31 00:21:00,57.9,54.0,29.50,WSW,255,3.0,10.0,88,0.04,,,0.00,weatherlink.com 1.10,2013-01-31 05:21:00,
2013-01-31 00:36:00,56.6,54.0,29.51,NW,304,4.0,17.0,89,0.04,,,0.01,weatherlink.com 1.10,2013-01-31 05:36:00,
2013-01-31 00:51:00,54.7,52.0,29.52,ESE,120,4.0,14.0,91,0.04,,,0.04,weatherlink.com 1.10,2013-01-31 05:51:00,
2013-01-31 01:06:00,53.7,52.0,29.50,ESE,107,1.0,8.0,92,0.06,,,0.06,weatherlink.com 1.10,2013-01-31 06:06:00,
2013-01-31 01:21:00,53.0,51.0,29.51,East,83,1.0,9.0,92,0.07,,,0.07,weatherlink.com 1.10,2013-01-31 06:21:00,
2013-01-31 01:36:00,52.4,50.0,29.50,NW,314,2.0,8.0,92,0.06,,,0.07,weatherlink.com 1.10,2013-01-31 06:36:00,
2013-01-31 01:51:00,51.9,49.0,29.51,WSW,240,2.0,9.0,90,0.03,,,0.07,weatherlink.com 1.10,2013-01-31 06:51:00,
2013-01-31 02:06:00,51.5,49.0,29.52,WNW,294,3.0,13.0,90,0.01,,,0.07,weatherlink.com 1.10,2013-01-31 07:06:00,
2013-01-31 02:21:00,51.2,48.0,29.52,SW,216,3.0,11.0,88,0.00,,,0.07,weatherlink.com 1.10,2013-01-31 07:21:00,
2013-01-31 02:51:00,50.3,46.0,29.53,WNW,283,2.0,8.0,86,0.00,,,0.07,weatherlink.com 1.10,2013-01-31 07:51:00,
2013-01-31 03:06:00,50.2,46.0,29.53,SW,224,2.0,11.0,85,0.00,,,0.07,weatherlink.com 1.10,2013-01-31 08:06:00,
2013-01-31 03:21:00,50.5,46.0,29.54,West,279,2.0,16.0,84,0.00,,,0.07,weatherlink.com 1.10,2013-01-31 08:21:00,
2013-01-31 03:36:00,50.6,46.0,29.54,WSW,249,10.0,10.0,84,0.00,,,0.07,weatherlink.com 1.10,2013-01-31 08:36:00,
2013-01-31 03:52:00,50.7,45.0,29.55,SSW,208,3.0,12.0,82,0.00,,,0.07,weatherlink.com 1.10,2013-01-31 08:52:00,
2013-01-31 04:06:00,50.8,45.0,29.56,WSW,245,9.0,12.0,81,0.00,,,0.07,weatherlink.com 1.10,2013-01-31 09:06:00,
2013-01-31 04:21:00,50.8,45.0,29.57,SW,226,5.0,11.0,80,0.00,,,0.07,weatherlink.com 1.10,2013-01-31 09:21:00,
2013-01-31 04:37:00,50.8,45.0,29.58,WNW,299,4.0,12.0,80,0.00,,,0.07,weatherlink.com 1.10,2013-01-31 09:37:00,
2013-01-31 04:52:00,50.6,45.0,29.59,WSW,239,4.0,10.0,80,0.00,,,0.07,weatherlink.com 1.10,2013-01-31 09:52:00,
2013-01-31 05:07:00,48.9,44.0,29.61,NW,304,5.0,15.0,82,0.01,,,0.08,weatherlink.com 1.10,2013-01-31 10:07:00,
2013-01-31 05:22:00,48.2,43.0,29.62,WNW,294,5.0,12.0,82,0.01,,,0.08,weatherlink.com 1.10,2013-01-31 10:22:00,
2013-01-31 05:37:00,48.0,41.0,29.63,West,277,4.0,11.0,77,0.01,,,0.08,weatherlink.com 1.10,2013-01-31 10:37:00,
2013-01-31 05:52:00,47.9,41.0,29.64,WNW,285,3.0,10.0,76,0.01,,,0.08,weatherlink.com 1.10,2013-01-31 10:52:00,
2013-01-31 06:07:00,47.6,40.0,29.65,NW,308,3.0,9.0,74,0.00,,,0.08,weatherlink.com 1.10,2013-01-31 11:07:00,
2013-01-31 06:22:00,47.4,39.0,29.67,NW,319,5.0,9.0,72,0.00,,,0.08,weatherlink.com 1.10,2013-01-31 11:22:00,
2013-01-31 06:37:00,47.5,39.0,29.68,West,281,3.0,8.0,71,0.00,,,0.08,weatherlink.com 1.10,2013-01-31 11:37:00,
2013-01-31 06:52:00,47.0,37.0,29.69,NW,308,3.0,7.0,68,0.00,,,0.08,weatherlink.com 1.10,2013-01-31 11:52:00,
2013-01-31 07:07:00,46.2,36.0,29.71,NNW,332,5.0,9.0,68,0.00,,,0.08,weatherlink.com 1.10,2013-01-31 12:07:00,
2013-01-31 07:22:00,45.5,33.0,29.73,NW,312,5.0,14.0,62,0.00,,,0.08,weatherlink.com 1.10,2013-01-31 12:22:00,
2013-01-31 07:37:00,44.9,30.0,29.74,WNW,289,3.0,14.0,56,0.00,,,0.08,weatherlink.com 1.10,2013-01-31 12:37:00,
2013-01-31 07:52:00,44.1,30.0,29.77,WNW,299,8.0,17.0,57,0.00,,,0.08,weatherlink.com 1.10,2013-01-31 12:52:00,
2013-01-31 08:07:00,43.6,27.0,29.79,NW,318,8.0,16.0,53,0.00,,,0.08,weatherlink.com 1.10,2013-01-31 13:07:00,
2013-01-31 08:23:00,43.3,27.0,29.79,West,279,6.0,11.0,52,0.00,,,0.08,weatherlink.com 1.10,2013-01-31 13:23:00,
2013-01-31 08:38:00,43.3,26.0,29.81,WNW,300,6.0,11.0,51,0.00,,,0.08,weatherlink.com 1.10,2013-01-31 13:38:00,
2013-01-31 08:52:00,43.6,26.0,29.82,WNW,283,4.0,15.0,50,0.00,,,0.08,weatherlink.com 1.10,2013-01-31 13:52:00,
2013-01-31 09:07:00,43.9,25.0,29.84,WNW,295,11.0,15.0,48,0.00,,,0.08,weatherlink.com 1.10,2013-01-31 14:07:00,
2013-01-31 09:23:00,44.0,25.0,29.85,WNW,290,9.0,13.0,47,0.00,,,0.08,weatherlink.com 1.10,2013-01-31 14:23:00,
2013-01-31 09:38:00,44.2,25.0,29.85,North,11,4.0,15.0,48,0.00,,,0.08,weatherlink.com 1.10,2013-01-31 14:38:00,
2013-01-31 09:53:00,44.5,25.0,29.86,NW,318,5.0,13.0,47,0.00,,,0.08,weatherlink.com 1.10,2013-01-31 14:53:00,
2013-01-31 10:08:00,44.5,24.0,29.86,NW,326,5.0,14.0,44,0.00,,,0.08,weatherlink.com 1.10,2013-01-31 15:08:00,
2013-01-31 10:23:00,44.7,24.0,29.87,NW,320,5.0,13.0,44,0.00,,,0.08,weatherlink.com 1.10,2013-01-31 15:23:00,
2013-01-31 10:37:00,45.1,23.0,29.88,NW,315,6.0,13.0,41,0.00,,,0.08,weatherlink.com 1.10,2013-01-31 15:37:00,
2013-01-31 10:53:00,46.0,23.0,29.88,WNW,288,4.0,11.0,41,0.00,,,0.08,weatherlink.com 1.10,2013-01-31 15:53:00,
2013-01-31 11:09:00,46.1,24.0,29.88,WSW,256,8.0,15.0,42,0.00,,,0.08,weatherlink.com 1.10,2013-01-31 16:09:00,
2013-01-31 11:24:00,46.3,25.0,29.88,NNW,335,9.0,21.0,43,0.00,,,0.08,weatherlink.com 1.10,2013-01-31 16:24:00,
2013-01-31 11:39:00,46.6,23.0,29.88,West,270,6.0,16.0,40,0.00,,,0.08,weatherlink.com 1.10,2013-01-31 16:39:00,
2013-01-31 11:54:00,47.4,25.0,29.87,NW,314,4.0,12.0,42,0.00,,,0.08,weatherlink.com 1.10,2013-01-31 16:54:00,
2013-01-31 12:09:00,47.9,26.0,29.87,WSW,251,3.0,10.0,42,0.00,,,0.08,weatherlink.com 1.10,2013-01-31 17:09:00,
2013-01-31 12:23:00,47.5,23.0,29.87,West,280,3.0,13.0,38,0.00,,,0.08,weatherlink.com 1.10,2013-01-31 17:23:00,
2013-01-31 12:39:00,47.9,23.0,29.86,NW,311,4.0,15.0,38,0.00,,,0.08,weatherlink.com 1.10,2013-01-31 17:39:00,
2013-01-31 12:53:00,47.6,20.0,29.86,NNW,333,11.0,18.0,34,0.00,,,0.08,weatherlink.com 1.10,2013-01-31 17:53:00,
2013-01-31 13:09:00,48.4,22.0,29.86,SW,233,14.0,14.0,36,0.00,,,0.08,weatherlink.com 1.10,2013-01-31 18:09:00,
2013-01-31 13:24:00,48.5,22.0,29.86,NW,307,5.0,13.0,35,0.00,,,0.08,weatherlink.com 1.10,2013-01-31 18:24:00,
2013-01-31 13:39:00,49.4,22.0,29.87,West,271,6.0,12.0,34,0.00,,,0.08,weatherlink.com 1.10,2013-01-31 18:39:00,
2013-01-31 13:55:00,48.7,21.0,29.87,WSW,238,7.0,16.0,33,0.00,,,0.08,weatherlink.com 1.10,2013-01-31 18:55:00,
2013-01-31 14:10:00,48.9,21.0,29.87,NW,321,7.0,14.0,33,0.00,,,0.08,weatherlink.com 1.10,2013-01-31 19:10:00,
2013-01-31 14:24:00,48.9,21.0,29.86,WNW,300,5.0,12.0,33,0.00,,,0.08,weatherlink.com 1.10,2013-01-31 19:24:00,
2013-01-31 14:40:00,49.5,21.0,29.87,NNW,342,4.0,11.0,33,0.00,,,0.08,weatherlink.com 1.10,2013-01-31 19:40:00,
2013-01-31 14:54:00,49.3,21.0,29.88,NW,318,4.0,14.0,33,0.00,,,0.08,weatherlink.com 1.10,2013-01-31 19:54:00,
2013-01-31 15:09:00,49.1,19.0,29.89,NNW,328,6.0,16.0,31,0.00,,,0.08,weatherlink.com 1.10,2013-01-31 20:09:00,
2013-01-31 15:25:00,49.6,21.0,29.89,WNW,293,9.0,12.0,32,0.00,,,0.08,weatherlink.com 1.10,2013-01-31 20:25:00,
2013-01-31 15:39:00,49.6,21.0,29.90,NW,314,3.0,12.0,32,0.00,,,0.08,weatherlink.com 1.10,2013-01-31 20:39:00,
2013-01-31 15:54:00,49.7,19.0,29.91,NW,308,4.0,14.0,30,0.00,,,0.08,weatherlink.com 1.10,2013-01-31 20:54:00,
2013-01-31 16:11:00,49.2,20.0,29.92,NW,314,7.0,14.0,31,0.00,,,0.08,weatherlink.com 1.10,2013-01-31 21:11:00,
2013-01-31 16:25:00,48.1,19.0,29.92,NNW,340,13.0,14.0,31,0.00,,,0.08,weatherlink.com 1.10,2013-01-31 21:25:00,
2013-01-31 16:40:00,47.9,19.0,29.93,NW,304,7.0,15.0,32,0.00,,,0.08,weatherlink.com 1.10,2013-01-31 21:40:00,
2013-01-31 16:56:00,47.5,20.0,29.94,WNW,298,5.0,13.0,33,0.00,,,0.08,weatherlink.com 1.10,2013-01-31 21:56:00,
2013-01-31 17:11:00,46.7,20.0,29.94,NW,306,5.0,9.0,35,0.00,,,0.08,weatherlink.com 1.10,2013-01-31 22:11:00,
2013-01-31 17:26:00,46.3,20.0,29.94,NW,309,3.0,8.0,35,0.00,,,0.08,weatherlink.com 1.10,2013-01-31 22:26:00,
2013-01-31 17:41:00,45.4,21.0,29.95,WNW,295,2.0,5.0,38,0.00,,,0.08,weatherlink.com 1.10,2013-01-31 22:41:00,
2013-01-31 17:56:00,44.2,22.0,29.96,NNW,344,1.0,2.0,41,0.00,,,0.08,weatherlink.com 1.10,2013-01-31 22:56:00,
2013-01-31 18:12:00,43.3,21.0,29.96,NW,321,2.0,6.0,42,0.00,,,0.08,weatherlink.com 1.10,2013-01-31 23:12:00,
2013-01-31 18:26:00,42.8,21.0,29.98,NW,308,3.0,5.0,42,0.00,,,0.08,weatherlink.com 1.10,2013-01-31 23:26:00,
2013-01-31 18:41:00,42.8,21.0,29.98,NW,308,3.0,5.0,42,0.00,,,0.08,weatherlink.com 1.10,2013-01-31 23:41:00,
2013-01-31 18:56:00,42.5,21.0,29.99,NW,311,2.0,5.0,42,0.00,,,0.08,weatherlink.com 1.10,2013-01-31 23:56:00,
2013-01-31 19:12:00,41.9,21.0,29.99,NW,313,1.0,2.0,43,0.00,,,0.08,weatherlink.com 1.10,2013-02-01 00:12:00,
2013-01-31 19:26:00,41.4,21.0,30.00,NW,309,3.0,4.0,45,0.00,,,0.08,weatherlink.com 1.10,2013-02-01 00:26:00,
2013-01-31 19:42:00,41.0,21.0,30.01,NW,319,0.0,3.0,45,0.00,,,0.08,weatherlink.com 1.10,2013-02-01 00:42:00,
2013-01-31 19:57:00,39.8,21.0,30.02,NW,314,0.0,2.0,47,0.00,,,0.08,weatherlink.com 1.10,2013-02-01 00:57:00,
2013-01-31 20:12:00,38.7,21.0,30.01,NW,314,0.0,0.0,49,0.00,,,0.08,weatherlink.com 1.10,2013-02-01 01:12:00,
2013-01-31 20:27:00,37.3,21.0,30.02,NW,314,0.0,0.0,51,0.00,,,0.08,weatherlink.com 1.10,2013-02-01 01:27:00,
2013-01-31 20:42:00,35.9,25.0,30.01,NW,315,0.0,1.0,64,0.00,,,0.08,weatherlink.com 1.10,2013-02-01 01:42:00,
2013-01-31 20:58:00,34.5,21.0,30.02,NW,315,0.0,0.0,59,0.00,,,0.08,weatherlink.com 1.10,2013-02-01 01:58:00,
2013-01-31 21:12:00,34.4,21.0,30.02,NW,313,0.0,1.0,58,0.00,,,0.08,weatherlink.com 1.10,2013-02-01 02:12:00,
2013-01-31 21:28:00,33.5,22.0,30.02,NW,313,0.0,0.0,63,0.00,,,0.08,weatherlink.com 1.10,2013-02-01 02:28:00,
2013-01-31 21:43:00,32.9,22.0,30.01,NW,314,0.0,0.0,64,0.00,,,0.08,weatherlink.com 1.10,2013-02-01 02:43:00,
2013-01-31 21:57:00,32.1,24.0,30.01,NW,313,0.0,0.0,71,0.00,,,0.08,weatherlink.com 1.10,2013-02-01 02:57:00,
2013-01-31 22:13:00,31.1,22.0,30.02,NW,314,0.0,0.0,69,0.00,,,0.08,weatherlink.com 1.10,2013-02-01 03:13:00,
2013-01-31 22:28:00,30.5,23.0,30.02,NW,313,0.0,0.0,75,0.00,,,0.08,weatherlink.com 1.10,2013-02-01 03:28:00,
2013-01-31 22:43:00,29.6,22.0,30.02,NW,313,0.0,0.0,73,0.00,,,0.08,weatherlink.com 1.10,2013-02-01 03:43:00,
2013-01-31 22:58:00,29.8,22.0,30.02,NW,313,0.0,0.0,74,0.00,,,0.08,weatherlink.com 1.10,2013-02-01 03:58:00,
2013-01-31 23:14:00,29.0,23.0,30.03,NW,313,0.0,0.0,78,0.00,,,0.08,weatherlink.com 1.10,2013-02-01 04:14:00,
2013-01-31 23:28:00,29.5,23.0,30.03,NW,314,0.0,1.0,75,0.00,,,0.08,weatherlink.com 1.10,2013-02-01 04:28:00,
2013-01-31 23:43:00,30.6,23.0,30.03,WNW,288,0.0,1.0,73,0.00,,,0.08,weatherlink.com 1.10,2013-02-01 04:43:00,
2013-01-31 23:59:00,30.6,22.0,30.03,WNW,288,0.0,0.0,69,0.00,,,0.08,weatherlink.com 1.10,2013-02-01 04:59:00,